RH
2 2 2 2 2 2 2 2 1 1 2 1 2 2 2 2 1 2 2 2 2 2 2 2 1 2 2 2 2 2 2 2 2 2 2 2 2 2 2 3 2 3 3 3 4 5 6 7 8 8 9 9 10 10 10 11 13 15 16 18 19 20 20 20 21 22 26 32 36 36 35 35 38 37 33 30 28 26 24 28 37 43 43 43 44
2 2 2 1 2 2 2 2 2 2 2 1 2 2 2 2 2 2 2 2 2 2 2 2 2 2 2 2 2 2 2 2 2 2 2 2 2 2 2 2 2 2 2 3 3 4 5 6 7 8 8 9 9 9 10 10 11 13 14 16 18 19 20 21 21 23 24 25 27 29 27 27 29 29 28 27 25 22 19 17 20 24 26 28 31
2 2 2 1 2 2 2 2 2 1 2 2 2 2 2 2 2 2 2 2 2 2 2 2 2 2 2 2 2 2 2 2 2 2 2 2 2 2 2 2 2 2 2 3 3 3 3 4 5 6 7 8 8 8 9 10 10 10 12 14 16 18 19 20 21 22 24 25 25 26 26 25 25 24 24 24 22 20 18 14 14 15 16 17 19
1 2 2 1 2 2 2 2 2 2 2 2 2 2 2 2 2 2 2 2 2 2 2 2 2 2 2 2 2 2 2 2 2 2 2 2 2 2 2 2 2 2 2 2 2 2 3 3 4 5 6 7 8 8 8 9 9 10 10 12 14 17 18 19 21 22 23 24 25 26 26 26 25 24 24 23 21 19 17 15 15 14 15 15 15
2 1 2 2 2 2 2 2 2 2 2 2 2 2 2 2 2 2 2 2 2 2 2 2 2 2 2 2 2 2 2 2 2 2 2 2 2 2 2 2 2 2 2 2 2 2 2 3 3 3 4 5 6 7 8 8 8 9 9 10 12 15 17 18 19 20 22 23 24 25 26 26 26 26 25 25 23 20 18 16 16 16 16 16 15
2 1 2 2 2 2 2 2 2 2 2 2 2 2 2 2 2 2 2 2 2 2 2 2 2 2 2 2 2 2 2 2 2 2 2 2 2 2 2 2 2 2 2 2 2 2 2 3 2 3 3 4 5 6 7 8 8 8 8 9 10 12 15 16 17 18 19 20 22 23 24 25 26 26 27 27 26 22 18 16 16 17 18 17 17
1 2 2 2 1 2 2 2 2 2 2 2 2 2 2 2 2 2 2 2 2 2 2 2 2 2 2 2 2 2 2 2 2 2 2 2 2 2 2 2 2 2 2 2 2 2 2 2 2 2 2 3 3 4 5 6 7 7 7 8 8 10 12 14 15 15 16 18 19 20 22 23 24 24 25 27 26 23 18 15 15 16 18 19 18
2 2 2 2 2 1 2 2 2 2 2 2 2 2 2 2 2 2 2 2 2 2 3 2 2 2 2 2 2 2 2 2 2 2 2 2 2 2 2 2 2 2 2 2 2 2 2 2 2 2 2 3 3 3 4 4 5 6 6 7 7 8 10 12 13 14 15 16 17 18 19 20 21 22 22 23 25 23 19 17 17 18 19 20 19
2 2 2 2 2 2 2 2 2 2 2 2 2 2 2 2 2 2 2 2 2 3 2 2 2 2 2 2 2 2 2 2 2 2 2 2 2 2 2 2 2 2 2 2 2 2 2 2 2 2 2 2 2 3 3 3 4 5 5 6 6 6 8 9 11 12 12 14 15 16 17 18 19 20 21 23 24 24 21 18 19 20 20 19 19
2 2 2 2 2 2 2 2 2 2 2 2 2 2 2 2 2 2 2 2 2 2 2 3 3 2 2 2 2 2 2 2 2 2 2 2 2 2 2 2 2 2 2 2 2 2 2 2 2 2 2 2 2 2 3 3 3 4 4 4 5 5 6 7 8 9 10 11 12 14 15 17 18 20 21 22 23 23 21 18 18 19 19 19 17
2 2 2 2 2 2 2 2 2 2 2 2 2 2 2 2 2 2 2 2 2 2 2 3 3 3 3 3 2 2 2 2 2 2 2 2 2 2 2 2 2 2 2 2 2 2 2 2 2 2 2 2 2 2 2 3 3 3 3 4 4 4 4 5 6 7 8 9 10 11 13 14 16 18 19 20 21 20 19 18 17 18 19 19 18
2 2 2 2 2 2 2 2 2 2 2 2 2 2 2 2 2 3 3 3 2 2 2 2 3 3 3 3 3 3 3 2 2 2 2 2 2 2 2 2 2 2 2 2 2 2 2 2 2 2 2 2 2 2 2 2 2 3 3 3 3 4 4 4 5 5 6 7 8 9 10 11 13 15 16 18 19 19 18 17 16 17 18 18 18
2 2 2 2 2 2 2 2 2 2 2 2 2 2 2 2 3 3 3 3 3 3 3 3 3 3 3 3 3 3 3 3 3 3 3 3 3 2 2 2 2 2 2 2 2 2 2 2 2 2 2 2 2 2 2 2 2 2 3 3 3 3 3 3 4 4 5 5 6 7 8 9 10 11 13 14 15 16 15 15 14 15 15 16 17
2 2 3 2 2 3 2 2 2 2 2 2 2 2 3 3 3 3 3 3 3 2 3 3 3 3 3 3 3 3 3 3 3 3 3 3 3 3 3 3 2 2 2 2 2 2 2 2 2 2 2 2 2 2 2 2 2 2 2 2 3 3 3 3 3 4 4 4 5 6 7 7 8 9 10 11 11 12 12 12 13 12 13 13 12
3 2 3 3 3 3 3 3 3 3 3 3 2 3 3 3 3 3 2 2 2 2 3 3 3 3 3 3 3 3 3 3 3 3 3 3 3 3 3 3 2 2 2 2 2 2 2 2 2 2 2 2 2 2 2 2 2 2 2 2 3 3 3 3 3 3 3 4 4 5 6 6 6 7 7 8 8 9 9 9 10 9 9 9 9
3 3 3 3 3 3 3 3 3 3 3 3 3 2 3 2 2 2 2 2 2 2 2 3 3 3 3 3 4 4 4 3 3 3 3 3 3 3 3 3 2 2 2 2 2 2 2 2 2 2 2 2 2 2 2 2 2 2 2 2 2 3 3 3 3 3 3 3 4 4 5 5 6 6 6 6 6 7 7 7 7 7 8 8 8
3 3 3 3 3 3 3 3 3 3 2 3 2 2 2 2 2 2 2 2 2 2 2 3 3 3 3 3 4 4 4 4 4 4 4 4 3 3 3 3 3 3 2 2 2 2 2 2 2 2 2 2 2 2 2 2 2 2 2 2 2 3 3 3 3 3 4 4 4 4 4 4 5 5 5 6 6 6 6 6 6 7 7 8 8
3 2 2 3 3 3 3 3 3 3 3 3 3 2 3 2 2 3 3 3 3 3 3 3 3 3 3 3 4 4 4 4 4 4 4 4 4 4 4 3 3 3 3 3 2 2 2 2 2 2 2 2 2 2 2 2 2 2 2 2 2 3 3 3 3 3 4 4 4 4 4 4 5 5 5 6 6 6 6 7 7 7 8 8 8
3 2 2 2 2 2 3 3 3 3 3 3 3 2 3 3 3 3 3 3 3 3 3 3 3 3 3 3 3 3 4 4 4 4 4 3 4 3 4 4 3 3 3 3 3 3 2 2 2 2 2 2 2 2 2 2 2 2 2 2 3 3 3 3 3 3 3 3 3 4 4 4 5 5 6 6 6 7 7 7 7 7 8 8 8
2 2 2 2 2 3 2 2 3 3 3 3 3 2 3 3 3 3 3 3 3 3 3 3 3 3 3 3 3 3 3 4 4 4 4 3 4 3 3 4 4 4 4 3 3 3 3 3 3 2 2 2 2 2 2 2 2 2 2 3 3 3 3 3 2 2 2 2 3 3 3 4 4 5 6 6 7 8 8 8 8 9 9 9 9
2 2 2 2 2 2 2 2 3 2 2 2 2 3 3 3 3 3 3 3 3 3 3 3 3 3 3 3 3 3 3 4 3 4 4 3 4 4 4 4 4 4 4 4 3 4 3 3 3 3 3 3 2 2 2 2 3 3 2 3 3 2 3 2 2 3 2 2 3 3 3 4 4 4 5 6 7 8 8 8 9 9 9 9 9
2 2 2 2 2 2 2 2 2 2 2 2 2 2 3 3 3 3 3 3 3 3 3 3 3 3 3 3 4 3 4 4 3 3 4 3 4 4 4 4 4 4 4 4 3 3 3 3 3 3 3 3 3 3 3 3 3 3 3 3 3 2 2 2 2 3 3 3 3 3 3 4 4 4 4 4 5 6 6 7 7 6 7 6 6
3 3 3 2 2 2 2 3 3 3 3 3 3 3 3 3 3 3 3 3 3 3 3 3 3 3 3 3 4 4 4 4 4 4 4 3 4 4 3 3 4 4 3 3 3 3 3 3 3 3 4 4 3 3 3 3 3 3 3 3 3 3 3 3 3 3 3 3 3 3 4 3 3 4 4 4 4 4 4 5 5 4 5 4 4
3 3 3 3 3 3 3 3 3 3 3 3 3 3 3 3 3 3 3 3 4 3 3 3 3 3 4 4 4 4 4 4 4 4 4 4 3 3 3 3 3 3 3 3 3 3 3 3 3 3 4 4 4 4 4 4 4 4 4 3 3 3 3 3 3 3 3 3 3 3 3 3 3 4 3 3 4 3 3 4 3 4 4 4 4
3 3 3 4 3 3 4 3 3 4 4 4 4 4 4 4 3 4 4 4 4 4 4 4 4 3 4 4 4 4 4 4 4 4 4 4 4 4 4 3 3 3 3 3 3 3 3 3 3 3 3 3 3 4 4 4 4 5 4 4 4 4 4 3 3 3 3 3 3 3 3 3 3 3 3 3 3 3 4 4 4 4 4 4 5
4 4 4 4 4 4 4 4 4 4 4 4 4 3 3 4 3 3 4 3 4 4 4 4 4 3 4 4 4 4 4 4 4 4 4 4 3 4 3 3 3 3 3 3 3 3 3 3 3 3 3 3 3 4 4 4 4 4 4 4 4 4 4 4 4 4 4 4 4 4 4 3 4 4 4 4 4 4 4 4 4 5 5 5 5
4 4 4 4 4 4 4 4 4 4 3 3 4 3 3 3 3 3 3 3 4 3 3 4 3 3 3 3 3 4 3 3 4 3 3 3 3 3 3 3 3 3 3 3 3 3 3 3 3 3 3 3 3 4 4 4 4 4 4 4 4 5 5 5 5 5 5 5 5 5 5 4 5 5 4 5 5 5 6 6 6 6 5 5 5
4 4 4 4 4 4 4 4 3 3 3 3 3 3 4 3 3 4 3 3 4 3 3 3 3 3 3 3 3 3 3 3 3 3 3 3 3 3 3 3 3 3 3 3 3 3 3 3 3 3 3 3 3 3 3 4 4 4 4 4 4 5 5 5 5 5 5 6 6 6 6 6 6 7 6 7 6 6 6 6 6 6 6 6 6
4 4 4 4 4 4 4 4 4 3 4 4 3 4 4 3 4 4 4 4 4 3 3 3 3 3 3 3 3 3 3 3 3 3 3 3 3 3 3 3 3 3 3 3 3 3 3 3 3 3 3 3 3 3 3 4 4 4 4 4 5 5 5 5 6 5 5 6 6 6 7 7 7 7 7 7 7 6 6 6 6 7 7 7 7
4 5 4 4 4 4 4 4 4 4 4 4 4 4 4 4 4 4 4 4 4 4 3 3 3 3 3 3 3 3 3 3 3 3 3 3 3 3 3 3 3 3 3 3 3 3 3 3 3 3 3 3 3 3 3 3 3 4 4 4 5 5 5 6 6 6 6 6 6 6 6 7 7 7 7 7 7 7 7 7 7 8 7 8 8
5 5 4 4 4 4 4 4 4 4 4 4 4 4 4 4 4 4 4 4 4 4 4 4 4 4 3 3 3 3 3 3 3 3 3 3 3 3 3 3 3 3 3 4 3 3 4 4 3 4 4 4 4 4 4 4 3 3 4 4 4 5 5 6 6 6 6 6 6 6 6 7 7 7 8 8 8 8 8 8 8 9 9 8 9
5 5 4 4 4 4 4 4 4 4 4 4 4 4 4 4 4 4 4 4 4 4 4 4 4 4 4 4 4 4 3 4 3 3 3 3 3 3 3 3 3 3 3 3 3 3 4 4 4 4 4 4 4 4 4 4 4 4 4 4 4 4 5 5 6 6 6 6 6 7 7 7 8 8 8 9 9 9 9 9 9 10 10 9 9
5 5 5 4 4 4 4 4 4 4 4 4 4 4 4 4 4 4 4 4 4 4 4 4 4 4 4 4 4 4 4 4 4 4 4 3 4 4 3 3 4 3 3 4 4 4 4 4 4 4 4 4 4 4 5 5 4 4 4 4 5 5 5 5 5 6 6 7 7 7 7 7 8 8 8 9 9 9 10 10 10 10 10 9 9
6 5 5 5 5 5 5 5 4 5 5 4 4 4 4 4 4 4 5 5 5 5 5 5 5 5 5 5 5 4 4 4 4 4 4 4 4 3 3 4 4 4 4 4 4 4 4 4 4 4 4 5 5 4 5 5 4 5 5 4 5 5 5 5 6 6 6 7 7 7 7 8 8 8 9 9 9 9 9 9 9 9 9 8 8
6 5 5 5 5 5 5 5 5 5 5 5 5 4 4 5 5 5 5 5 5 5 5 5 5 5 5 5 5 5 5 5 4 4 4 4 4 4 4 4 4 4 4 4 4 4 4 4 5 5 5 5 5 5 5 5 5 5 5 5 5 5 5 5 5 5 6 6 7 7 7 7 8 8 8 8 8 8 9 8 8 9 9 8 9
6 6 6 5 5 5 5 5 5 5 5 5 5 5 5 5 5 5 5 5 5 5 5 5 6 5 5 6 5 5 5 5 5 5 5 4 4 4 4 4 4 4 4 4 4 4 4 4 5 5 5 5 5 5 5 5 5 5 5 5 5 5 5 6 6 6 6 6 6 7 7 7 8 8 8 8 8 8 9 9 9 9 9 9 9
6 6 6 6 5 5 5 5 5 5 5 5 5 5 5 5 5 6 6 6 6 6 6 6 6 6 6 6 5 5 6 6 5 6 5 5 5 5 4 4 4 4 4 4 4 4 4 4 5 5 5 5 5 5 5 5 5 6 6 6 6 6 6 6 6 6 7 7 7 7 7 7 8 8 8 8 8 8 8 8 8 8 8 7 7
6 6 6 6 6 6 6 6 6 6 5 6 6 6 6 6 6 6 7 7 7 7 7 7 7 7 7 7 6 6 6 6 6 6 6 6 5 5 5 5 5 5 5 4 4 5 5 5 5 5 5 5 5 5 5 5 5 5 5 5 6 6 5 6 6 6 6 6 6 6 6 6 6 6 6 7 6 6 7 7 6 6 6 6 6
7 7 7 7 7 7 7 7 7 7 6 6 6 6 6 6 6 7 7 7 7 8 8 8 8 8 8 7 7 7 7 7 7 7 6 6 6 6 6 6 5 5 5 5 5 5 5 5 5 5 5 5 5 5 5 5 5 5 5 5 6 6 5 6 6 6 6 6 6 6 6 6 6 6 6 6 6 6 7 6 6 6 7 6 6
8 8 8 8 8 8 8 8 7 7 7 7 7 6 7 7 7 7 7 7 7 7 8 8 8 8 9 9 8 8 8 8 8 8 8 7 7 7 7 7 6 6 6 6 6 6 6 6 6 6 6 6 6 6 6 6 6 6 6 6 6 6 6 6 6 6 6 7 7 7 7 7 7 7 7 7 7 7 7 7 7 7 7 7 7
9 9 9 9 10 10 9 9 9 8 8 8 8 7 7 7 7 7 7 7 7 7 7 7 8 8 8 8 9 9 9 9 9 10 9 9 9 9 8 8 8 8 8 8 7 7 7 7 7 7 7 7 7 7 7 7 7 7 7 7 7 7 7 7 7 7 7 7 7 7 7 7 7 8 8 8 8 8 8 8 8 8 8 9 9
9 10 10 10 11 11 10 10 10 10 10 9 9 9 9 8 8 9 8 8 8 8 8 8 8 8 8 8 8 8 8 9 9 9 9 9 10 9 9 10 9 9 10 10 9 9 9 9 9 9 9 9 9 9 9 9 9 9 9 9 9 9 9 9 9 9 9 9 9 9 10 10 10 10 10 10 10 10 10 10 10 10 10 10 10
9 10 11 11 11 12 12 12 12 12 12 12 12 11 12 11 12 12 12 12 12 13 13 14 13 12 11 10 10 10 10 9 9 9 9 9 9 8 8 9 9 9 10 10 10 10 10 10 10 11 11 11 11 11 11 11 11 11 11 11 11 11 11 11 11 11 10 11 11 11 11 11 11 11 11 11 11 11 11 11 12 12 12 12 12
11 10 10 12 12 13 13 14 14 15 16 16 17 17 16 16 17 17 18 17 18 18 19 21 22 21 19 18 17 17 17 16 16 15 15 14 13 13 12 12 12 12 11 11 11 10 10 10 11 11 11 11 10 10 10 11 11 11 11 11 12 12 12 12 13 13 13 13 13 13 14 14 14 14 15 15 15 16 16 16 16 16 16 16 16
12 12 11 12 13 14 14 15 17 18 19 20 21 21 21 21 21 22 23 24 24 25 25 26 28 28 27 26 26 25 25 25 25 24 24 23 23 23 23 23 23 23 22 22 22 21 20 20 20 20 20 19 19 18 18 18 18 18 19 19 20 20 21 21 21 21 21 22 21 21 21 21 21 21 21 20 20 20 19 19 19 18 18 17 17
13 14 13 13 13 15 16 17 18 19 20 21 23 24 24 24 24 26 27 28 29 28 27 28 29 30 30 29 28 28 28 28 28 28 27 27 27 27 28 28 29 29 29 29 29 29 29 29 29 29 29 29 28 27 26 26 26 26 26 27 27 27 27 27 27 26 26 25 24 24 23 23 22 22 22 21 21 20 20 19 19 18 18 17 16
13 14 15 15 14 15 17 20 21 22 22 22 22 24 26 27 29 30 31 31 31 30 28 29 30 30 29 28 27 27 27 27 27 27 27 27 26 26 26 26 26 26 27 27 27 27 27 27 27 27 27 27 27 27 27 27 27 28 28 28 28 27 27 26 26 25 25 24 24 24 23 23 23 22 22 21 21 20 20 19 18 18 17 17 16
12 14 15 16 16 16 18 21 23 24 24 24 24 25 28 31 33 34 34 33 33 33 31 30 29 29 28 28 28 28 28 28 28 27 26 26 26 25 25 25 25 25 25 25 25 26 26 26 26 26 26 27 27 27 27 27 27 27 27 27 26 26 26 26 26 25 25 25 25 24 24 23 23 22 22 21 21 21 20 20 19 19 18 17 16
10 12 14 16 16 17 18 20 23 25 26 26 26 27 30 34 37 38 37 36 37 36 34 31 30 31 31 30 30 31 31 31 31 29 28 27 27 26 26 26 26 26 26 26 27 27 27 27 27 26 26 26 26 26 26 26 26 26 26 27 27 28 28 28 28 27 27 27 26 26 25 25 24 24 24 23 23 22 21 20 20 19 18 17 16
8 10 13 15 16 17 18 20 22 25 27 29 29 30 32 36 40 42 41 39 39 39 37 34 33 34 35 35 35 35 35 35 34 34 32 31 31 30 29 29 28 28 28 28 29 29 28 28 28 28 28 28 28 28 29 29 29 29 29 29 29 29 29 29 28 28 27 27 26 26 26 26 25 25 25 24 23 22 22 21 20 19 18 17 16
7 8 11 13 15 16 18 20 23 25 27 30 32 33 36 39 43 45 44 43 43 43 41 39 38 38 39 39 39 39 38 38 38 38 38 37 36 35 34 34 33 34 34 34 34 34 33 33 33 33 33 32 32 32 32 32 32 32 32 32 32 32 32 31 30 30 29 28 28 27 27 27 26 26 25 24 23 23 22 21 20 19 18 17 16
Wind_Speed
40 41 42 44 46 47 49 50 50 50 51 51 53 54 55 55 55 56 58 59 61 63 65 66 67 69 72 74 77 79 81 83 84 86 87 90 93 97 102 105 107 108 110 112 116 119 122 125 128 129 130 132 133 134 134 134 135 137 139 140 142 144 145 145 145 146 148 150 151 151 149 148 148 148 146 144 143 142 141 138 138 139 138 137 136
38 39 40 41 43 45 47 48 49 49 49 49 50 51 52 53 53 53 55 57 59 61 63 64 65 67 69 71 73 75 77 79 80 81 82 84 87 91 95 99 103 105 107 108 111 115 118 121 124 126 128 129 131 132 133 134 134 135 136 137 139 141 142 143 144 145 146 148 150 151 151 149 149 148 148 147 146 145 143 140 138 138 138 138 138
36 37 38 39 40 41 43 46 47 47 47 47 47 48 49 50 50 51 52 54 56 59 60 61 63 65 67 69 70 72 73 75 77 78 79 80 82 85 88 92 95 100 103 105 107 111 114 117 120 123 125 127 129 130 131 132 133 133 134 134 136 138 139 141 142 143 144 146 148 149 150 150 149 148 148 148 147 146 145 141 138 137 137 138 139
33 34 35 37 38 37 39 41 44 45 45 45 44 45 46 47 48 48 49 51 53 56 57 58 60 62 65 66 67 69 70 72 74 75 76 78 79 81 82 85 88 92 96 101 104 107 111 113 116 119 122 124 126 128 129 131 131 132 132 132 134 135 137 138 139 141 142 144 145 147 148 149 149 148 148 148 148 146 144 141 137 136 136 137 138
31 31 33 34 35 36 36 37 39 42 43 43 43 43 44 45 46 46 47 48 50 52 54 55 57 60 62 64 65 66 67 69 71 73 74 75 76 77 78 80 82 85 89 94 99 103 106 110 113 115 118 120 122 124 127 128 130 130 131 131 131 133 135 137 138 139 140 141 142 143 145 146 147 147 147 148 148 146 144 140 136 135 135 136 137
30 30 31 32 32 33 32 33 36 38 39 40 41 42 42 43 44 45 45 46 47 49 51 53 55 56 58 60 62 63 65 66 68 70 72 72 73 74 75 76 78 80 83 88 93 97 101 105 108 111 113 115 118 121 124 126 128 128 129 129 129 131 133 135 136 137 137 138 139 140 141 142 143 144 145 146 147 147 143 138 134 133 134 135 135
30 30 30 31 31 29 29 31 32 33 35 37 38 39 39 40 42 43 43 43 44 45 48 51 53 54 55 57 59 60 61 64 66 68 69 70 70 71 72 74 75 77 79 82 86 90 94 98 102 106 108 110 114 117 121 123 125 126 127 127 127 128 129 132 133 134 135 135 136 137 138 139 139 140 141 143 145 145 142 136 131 130 132 133 134
33 30 30 31 32 29 27 28 29 30 32 34 35 35 36 37 38 40 40 40 41 43 46 49 51 52 53 54 55 56 59 61 64 65 67 67 68 69 70 71 72 73 75 78 81 85 88 92 95 99 103 106 109 113 117 120 122 124 125 125 126 126 126 128 130 132 132 133 134 135 136 136 137 137 137 138 141 142 140 135 131 130 132 133 134
34 33 31 31 31 30 27 26 27 28 30 32 32 32 33 34 35 36 37 38 39 41 43 46 48 50 51 51 52 54 56 59 60 62 63 64 65 66 67 68 69 71 72 74 77 80 83 86 89 92 96 100 103 107 111 115 118 120 122 124 124 124 124 124 126 128 129 130 131 133 134 134 134 135 135 136 137 139 139 135 132 131 132 133 133
33 32 32 31 31 31 28 26 26 28 29 30 31 31 31 32 33 34 35 36 37 38 40 43 44 47 48 49 49 51 54 55 57 58 59 61 62 63 64 66 67 69 70 72 74 76 78 81 84 87 90 93 97 101 105 110 114 117 119 121 122 122 121 121 122 124 126 127 128 129 131 131 132 133 134 135 136 137 137 134 131 130 131 131 130
30 30 30 30 31 31 30 27 27 27 28 29 30 30 29 30 31 32 33 34 35 36 38 40 42 44 46 47 48 49 51 52 53 55 57 59 61 62 62 64 65 67 68 70 71 73 74 76 79 82 85 87 90 94 99 103 108 112 115 117 119 119 119 118 119 120 122 123 124 125 127 128 129 130 132 133 134 134 134 132 130 129 129 129 129
28 28 28 29 30 30 30 29 28 28 28 29 29 28 28 29 29 30 31 32 33 34 36 37 40 42 44 46 46 47 48 49 50 52 54 56 58 60 61 63 64 65 66 67 69 70 72 73 75 77 80 83 86 89 93 97 101 105 109 112 114 116 116 116 116 117 118 119 121 122 123 124 126 127 128 130 132 132 132 131 129 128 127 128 128
28 28 28 27 28 29 30 30 29 28 28 28 28 27 27 28 28 29 30 30 30 32 33 35 38 40 42 44 45 46 46 47 48 50 52 54 55 57 60 62 63 63 64 65 67 69 70 72 73 75 77 79 82 85 88 91 95 98 102 106 109 111 112 112 113 114 114 115 116 117 119 121 122 124 125 127 129 129 129 128 126 126 126 126 127
28 27 27 26 26 27 28 29 28 28 27 26 27 27 27 27 28 29 29 29 29 30 31 32 35 37 40 41 43 44 45 45 47 48 50 51 52 54 57 59 61 62 63 64 66 67 68 70 71 73 74 76 78 81 84 87 89 92 95 98 102 105 107 108 109 110 111 111 112 113 115 118 119 120 122 124 124 125 125 124 124 124 124 124 124
28 26 26 25 25 24 25 26 26 26 25 25 26 26 26 27 28 29 28 28 29 29 29 30 32 34 36 39 40 42 43 44 45 47 48 49 50 52 54 57 59 60 62 63 64 65 66 67 69 70 72 73 75 78 80 82 85 86 88 91 94 97 99 101 103 105 106 107 107 109 112 115 116 116 117 118 119 119 120 119 119 119 120 120 119
26 25 24 23 22 22 22 23 23 24 25 25 25 25 26 27 27 28 28 28 28 28 28 29 30 31 32 35 37 39 41 43 44 45 46 47 48 50 52 54 56 58 59 60 61 62 63 65 66 68 69 71 73 74 76 78 80 81 83 85 87 89 92 95 97 99 100 101 102 104 107 110 111 112 112 113 114 114 115 114 114 114 114 115 115
25 24 23 21 20 19 19 20 21 22 22 23 23 24 24 25 26 27 27 27 27 28 28 28 28 28 29 31 33 36 38 40 41 42 43 45 46 47 49 51 53 55 56 57 58 60 61 63 64 66 67 68 70 71 73 74 76 78 79 81 82 83 85 88 90 92 93 94 95 98 100 102 104 106 107 109 110 110 110 110 109 110 111 111 111
24 22 21 20 18 17 16 17 18 19 19 20 21 21 22 23 24 25 26 26 26 26 26 27 27 27 27 28 30 32 34 36 38 40 41 43 44 45 46 48 50 52 53 53 54 56 58 60 62 63 65 66 67 68 69 70 72 74 75 77 77 78 80 83 85 86 86 87 88 90 92 94 96 99 102 104 105 106 107 107 106 107 107 107 107
22 21 20 18 17 16 15 15 16 16 17 18 18 19 20 21 22 23 23 24 24 24 25 25 26 26 26 27 28 29 31 32 34 36 39 41 42 43 44 46 47 48 49 50 51 52 54 55 57 59 62 63 63 64 65 66 68 70 71 72 73 75 78 81 81 81 82 83 83 85 87 88 90 92 95 97 99 100 102 102 102 102 103 103 103
20 20 19 17 17 16 15 15 15 15 16 17 17 18 18 19 20 21 21 22 23 23 24 24 25 25 26 26 27 28 28 29 31 33 35 37 39 41 42 43 44 45 46 47 48 50 51 52 53 55 58 59 60 61 62 64 65 67 67 68 70 74 77 77 77 78 79 80 81 82 83 84 85 87 89 90 92 94 96 97 97 98 98 99 99
20 19 18 17 16 16 15 15 14 15 15 16 17 17 17 18 18 19 20 21 21 22 22 23 23 24 24 25 26 27 28 28 29 30 32 33 36 38 39 41 42 43 44 45 46 47 48 49 51 52 54 55 55 56 58 60 61 63 64 66 70 72 73 73 74 75 76 76 77 78 80 80 81 83 84 85 87 89 91 92 93 94 95 95 96
21 20 19 18 16 15 15 15 14 15 15 15 16 17 17 17 17 18 19 19 20 21 21 22 22 22 23 24 24 25 27 28 29 29 30 31 32 34 36 37 39 40 42 43 44 45 46 47 48 49 50 51 52 52 54 55 57 60 62 65 67 68 68 69 70 70 71 72 74 76 77 77 78 80 82 83 85 87 88 90 91 92 93 93 94
22 22 20 19 17 16 15 15 15 15 15 15 15 15 16 16 16 17 17 18 19 19 20 20 21 21 22 22 23 23 24 26 27 28 29 29 30 31 33 34 35 37 39 40 41 42 43 43 44 45 46 48 49 50 51 52 53 55 58 60 61 62 63 64 65 65 67 69 71 73 74 75 76 78 80 81 83 84 85 86 87 88 89 90 91
23 22 21 19 18 17 16 16 15 14 14 14 14 14 14 14 15 15 15 16 16 17 18 18 19 20 21 21 21 22 22 23 24 25 26 27 28 30 31 32 32 34 35 36 37 39 39 40 40 41 43 44 46 47 48 49 50 52 55 56 56 57 59 61 61 62 64 65 67 69 70 72 73 75 77 78 78 79 79 80 81 83 83 84 85
22 22 21 20 19 18 17 16 15 14 13 12 12 12 13 13 13 13 13 14 14 15 16 16 17 18 19 19 19 20 20 21 21 22 23 25 26 27 28 29 30 32 33 34 35 35 36 36 37 38 40 41 43 44 45 46 48 50 51 52 53 55 56 57 57 59 60 60 62 64 65 67 68 70 71 72 73 73 74 75 76 76 77 79 80
22 22 21 21 20 19 18 17 16 15 14 13 12 12 12 12 12 12 12 13 13 13 14 15 15 16 17 17 18 18 19 19 20 21 22 23 24 25 26 27 28 29 31 32 33 33 33 34 34 35 36 37 39 40 42 43 44 46 47 49 50 52 53 53 53 53 54 55 57 59 61 62 62 64 65 66 67 68 69 70 71 72 74 76 77
23 22 21 20 20 19 17 16 15 14 14 13 12 12 11 11 11 11 11 11 11 12 12 13 14 14 15 15 16 16 17 17 18 19 20 21 22 23 24 25 26 27 28 29 30 31 32 32 32 33 34 34 36 37 38 40 41 42 43 45 46 47 48 48 50 50 51 52 53 55 56 56 56 57 59 60 62 63 65 67 69 71 72 73 73
23 22 21 20 19 18 17 16 15 14 13 13 12 12 11 10 10 10 10 10 10 11 11 11 12 12 13 14 14 15 15 16 16 17 17 18 19 20 21 22 23 24 25 26 27 28 29 30 30 31 32 33 33 34 36 37 38 38 39 40 41 43 44 45 46 47 48 49 49 50 51 52 52 53 55 57 60 62 64 66 67 68 69 69 69
24 23 21 20 19 19 18 17 16 15 14 14 13 12 11 11 10 10 10 9 9 10 10 10 10 10 11 12 12 13 13 14 15 15 15 15 16 17 18 20 21 22 23 24 25 25 26 27 27 28 29 30 31 32 33 34 35 35 36 37 37 38 40 41 42 44 45 46 46 47 49 51 52 53 55 57 59 60 61 62 63 63 65 65 66
25 23 21 20 20 20 18 17 17 16 15 14 13 12 11 10 10 10 9 9 9 9 9 9 9 9 9 10 10 11 12 12 12 12 12 13 13 14 16 17 18 20 21 22 23 23 24 24 25 25 26 26 27 28 29 30 32 33 34 35 36 37 37 39 40 42 43 44 45 46 47 49 51 53 55 56 57 57 57 57 58 59 60 61 62
26 24 22 21 22 21 20 18 18 17 16 15 14 13 12 11 11 10 10 10 10 11 10 10 10 10 9 9 9 9 10 10 10 11 11 11 11 12 13 14 16 18 19 20 21 22 23 23 24 24 24 24 25 25 26 27 28 30 31 33 34 36 37 38 39 40 41 42 42 43 45 46 48 49 51 52 52 52 52 53 54 55 57 58 59
26 25 23 23 23 22 21 20 19 18 17 17 16 15 14 13 12 11 11 11 11 11 11 11 11 10 9 9 8 8 9 9 9 10 10 10 10 11 11 12 13 15 17 18 20 21 22 23 23 24 24 24 25 25 26 26 27 28 29 30 31 33 35 37 38 39 39 40 40 41 42 43 44 45 46 47 48 49 49 50 52 53 54 55 57
28 27 25 25 24 23 21 20 20 19 18 17 16 14 13 12 12 11 11 11 11 11 11 11 10 10 9 8 8 8 8 8 9 9 10 10 10 10 10 10 11 12 14 15 17 18 19 21 22 23 24 24 25 25 26 26 27 27 28 28 29 31 32 34 36 37 38 39 39 40 40 41 42 43 44 46 47 48 49 50 51 52 53 54 55
28 28 27 25 24 23 21 20 20 19 18 17 16 14 13 12 12 12 12 11 11 10 10 10 10 9 9 8 8 8 8 8 8 8 9 10 10 10 10 10 10 11 12 13 14 16 17 19 20 21 22 23 24 24 25 25 26 26 27 27 28 29 30 31 33 34 35 37 37 38 39 40 41 42 44 45 46 47 48 49 50 50 51 52 52
28 27 27 25 24 22 21 20 19 19 18 17 16 15 14 13 13 12 12 12 11 11 11 10 9 9 9 8 8 7 7 7 7 8 8 9 9 9 10 10 10 11 11 12 13 14 16 17 18 19 20 21 22 22 23 23 24 24 25 25 26 27 28 29 31 32 33 34 35 37 38 39 40 41 42 42 43 44 44 45 45 46 47 48 48
29 29 28 27 25 23 22 21 20 19 19 18 17 17 16 15 14 14 13 13 13 13 12 11 10 9 8 8 7 6 6 5 5 6 6 7 8 8 9 9 10 10 11 11 12 13 15 16 17 18 18 19 20 20 21 21 22 22 23 23 24 25 26 27 28 29 30 31 32 33 34 35 36 37 38 39 40 41 41 42 43 44 46 47 48
31 30 30 29 27 26 25 23 21 21 20 20 19 18 17 16 15 15 14 14 14 13 13 12 11 10 9 8 7 6 5 5 4 4 4 4 5 6 7 8 9 9 10 11 12 13 14 15 16 17 18 19 19 20 20 20 21 21 22 22 23 23 24 25 26 27 28 29 30 31 32 33 35 36 37 38 39 40 41 42 43 44 45 46 47
32 31 30 30 29 27 26 24 22 21 21 20 19 17 16 15 15 14 14 13 13 13 12 11 11 10 10 9 7 6 5 5 4 3 3 3 3 4 5 6 7 8 9 9 10 11 13 14 15 16 17 18 18 19 19 20 20 21 21 22 22 23 24 25 25 26 27 28 29 30 31 32 33 34 35 36 37 38 39 40 41 42 43 44 45
32 31 30 29 28 27 26 24 22 21 20 19 18 16 15 15 14 14 13 12 12 11 11 10 10 9 9 8 8 6 5 5 4 3 3 2 2 3 3 4 5 6 7 8 9 10 11 12 13 14 15 16 16 17 17 18 18 19 19 20 21 21 22 23 24 25 25 26 27 28 29 30 31 32 33 34 35 36 37 38 39 40 41 42 43
33 32 30 29 28 27 26 24 23 22 21 20 18 16 15 14 14 13 12 12 11 11 11 10 9 9 8 7 7 6 5 5 4 3 2 2 1 1 1 2 3 4 5 5 6 7 8 9 10 11 12 13 14 14 15 15 15 16 17 17 18 19 20 20 22 22 23 24 25 26 27 28 29 30 31 32 33 34 35 36 37 38 39 40 41
34 33 31 30 29 28 26 25 24 23 22 21 19 17 16 15 14 13 13 12 12 12 11 11 10 9 8 7 6 6 5 5 4 3 2 1 1 1 1 2 2 3 3 4 5 6 7 7 8 9 10 11 12 12 13 13 14 14 15 16 16 17 18 19 20 21 22 22 23 24 25 26 27 28 29 30 31 32 33 34 35 36 37 38 39
35 34 32 30 29 28 26 25 24 23 23 21 20 18 17 16 15 15 14 13 13 13 12 12 11 10 10 9 8 7 6 5 4 3 2 1 0 1 1 2 3 3 3 4 4 5 6 7 7 8 9 10 11 11 12 12 13 13 14 15 15 16 17 18 19 19 20 21 21 22 23 24 24 25 26 28 29 30 31 32 33 34 35 36 37
35 33 32 30 28 27 26 25 24 23 22 22 20 19 18 17 17 16 15 14 14 13 13 13 12 12 11 10 9 8 8 7 6 5 4 3 2 2 1 0 1 2 2 3 4 4 5 6 7 8 8 9 10 11 11 12 12 13 13 14 15 15 16 17 17 18 18 19 20 21 22 23 24 25 25 27 28 28 30 31 32 33 35 36 37
34 32 31 30 28 26 25 25 24 23 22 21 21 20 19 18 18 17 16 15 15 14 13 13 13 12 12 11 10 10 9 9 8 7 6 6 5 4 4 3 2 2 1 1 1 2 3 4 5 6 7 7 8 9 9 10 11 11 12 13 13 13 14 15 15 16 17 18 19 20 21 22 23 24 25 26 27 28 30 31 32 33 34 35 37
35 32 30 29 27 26 24 24 23 22 22 21 20 20 19 19 18 17 16 15 15 14 14 13 13 13 13 12 11 11 10 9 9 8 7 7 6 5 5 4 3 3 2 2 2 2 2 3 4 4 5 6 7 8 8 9 10 10 11 11 12 13 13 14 15 16 17 18 19 20 21 22 23 24 25 26 27 28 30 30 31 33 34 35 36
35 33 30 29 27 25 24 23 22 22 21 20 20 20 19 19 18 17 17 16 15 14 13 13 13 13 13 12 12 11 10 10 9 8 7 6 6 5 4 3 2 2 2 2 3 3 4 4 5 6 6 7 8 8 9 9 10 10 11 11 12 13 14 15 15 16 17 18 19 20 20 21 22 23 24 25 26 27 28 29 30 31 32 33 35
36 34 31 29 27 26 24 23 22 22 21 20 19 19 19 19 18 18 17 16 16 15 14 14 13 13 12 12 12 11 11 10 10 9 8 7 6 5 4 4 3 3 3 3 4 4 5 5 6 6 7 7 7 8 8 8 9 10 10 11 12 12 13 14 14 15 16 16 17 18 19 20 21 22 23 24 24 26 27 28 29 31 32 33 35
37 35 32 30 28 27 25 24 23 22 22 21 20 19 19 18 18 18 17 16 16 16 15 14 14 14 13 13 12 12 12 11 11 10 9 9 8 7 6 6 5 5 4 4 4 5 5 5 5 6 6 6 7 7 8 8 9 9 10 10 11 12 12 13 14 15 15 16 17 18 19 20 21 22 23 24 25 26 27 28 30 31 33 34 35
37 35 33 31 29 27 25 24 23 22 22 21 21 20 19 18 18 18 17 17 16 16 16 15 15 15 15 14 14 13 13 13 12 12 11 11 10 9 9 8 7 7 7 6 6 6 6 6 6 6 6 7 7 7 8 9 9 10 11 11 12 13 13 14 15 15 16 17 18 19 20 21 22 22 23 25 26 27 28 29 30 32 33 34 36
38 35 33 31 29 28 26 24 23 22 22 21 21 20 19 19 18 18 17 17 16 16 16 16 16 16 15 15 15 15 14 14 14 13 13 12 12 11 11 10 9 9 8 8 8 7 7 7 7 7 8 8 8 9 9 10 10 11 11 12 13 13 14 15 15 16 17 18 19 19 20 21 22 23 24 25 26 27 28 30 31 32 33 35 36
40 37 34 31 29 28 26 25 23 23 22 22 21 21 20 19 18 18 18 17 17 17 16 16 16 16 16 16 15 15 15 15 15 15 14 14 13 13 12 12 11 11 10 10 9 9 8 8 8 8 8 8 9 9 9 10 10 11 12 12 13 13 14 15 15 16 17 18 18 19 20 21 22 23 24 26 27 28 29 30 32 33 34 36 37
Wind_Direction
278 275 273 271 270 269 267 266 264 262 261 259 258 257 256 255 253 252 251 250 250 249 248 247 245 244 244 243 243 243 243 244 243 243 241 240 240 239 240 241 241 240 238 237 237 237 237 238 239 240 240 241 241 241 241 241 240 240 240 240 240 241 242 242 242 242 243 244 245 246 247 247 248 249 250 250 250 250 250 249 249 250 251 251 251
279 276 274 271 269 269 268 268 266 264 262 260 259 258 257 256 254 252 251 250 250 250 249 248 247 246 244 243 243 243 243 243 243 243 243 242 241 240 239 240 241 241 240 238 237 237 237 237 237 239 239 240 240 241 241 241 241 240 240 240 240 240 241 242 242 242 242 243 244 245 247 247 248 249 250 250 250 251 251 250 250 250 251 251 252
281 279 277 274 270 268 267 267 266 265 264 262 261 260 259 257 255 253 251 250 250 250 249 249 248 247 246 245 244 243 243 243 243 243 242 242 241 241 240 239 239 240 240 239 238 237 237 237 236 237 238 238 239 240 241 241 241 241 240 240 240 240 241 241 242 242 242 242 243 244 246 247 248 248 249 250 251 251 251 251 250 251 251 252 252
284 282 280 277 273 269 265 264 265 266 265 265 263 262 260 259 257 254 252 250 250 250 249 249 249 248 248 247 246 245 244 243 242 242 242 241 241 241 240 240 239 239 239 239 239 238 237 237 236 236 236 237 238 239 240 240 241 241 241 240 240 240 241 241 242 242 242 242 243 244 245 246 247 248 249 250 251 251 251 251 251 251 252 252 253
289 285 281 277 274 270 266 263 263 263 264 265 264 262 261 260 258 255 253 251 250 250 249 249 249 248 248 248 247 246 245 244 243 242 242 241 241 241 241 240 239 238 238 239 239 238 238 238 237 237 236 236 237 238 239 240 240 241 241 240 239 239 240 240 241 242 242 242 243 243 244 245 246 247 249 250 251 251 252 252 252 252 252 253 253
295 290 284 279 275 271 267 262 260 260 261 261 261 261 260 259 258 256 254 252 250 250 250 249 249 249 249 248 247 246 245 244 243 242 242 241 241 241 241 241 240 238 238 238 238 238 238 238 238 238 237 236 236 237 238 239 240 240 241 241 240 239 239 240 240 241 241 242 243 243 244 244 245 246 247 249 250 251 252 252 251 252 252 253 254
300 295 289 284 280 275 269 264 259 258 258 257 256 257 257 258 258 257 256 254 253 252 251 251 250 249 249 248 248 247 246 245 244 242 241 241 241 240 241 241 240 239 238 237 238 238 238 238 238 238 238 237 236 236 237 238 239 240 241 241 240 239 239 239 240 241 241 242 243 243 244 244 245 245 246 247 249 251 252 252 252 252 253 254 254
304 299 293 289 285 281 274 268 262 259 258 257 255 254 255 255 256 257 256 255 253 251 250 250 250 249 248 248 248 248 247 246 244 243 242 241 241 241 240 241 241 240 240 238 238 238 238 238 238 238 238 238 237 237 237 238 238 239 240 241 241 240 239 239 239 240 241 241 242 243 243 244 245 245 246 247 248 250 252 252 253 253 253 253 254
303 300 296 291 287 284 278 272 267 263 261 260 258 255 254 255 255 255 255 254 251 249 248 248 249 250 250 249 248 248 247 246 245 244 243 242 242 241 241 241 241 241 240 240 239 238 238 238 238 237 237 237 237 237 237 237 238 239 239 240 241 241 240 239 239 239 240 241 241 242 243 244 244 245 246 247 248 249 251 251 251 251 252 252 252
301 299 297 292 288 285 281 276 272 268 265 264 262 259 257 257 256 256 255 254 253 252 250 249 248 249 250 250 249 248 247 246 245 245 244 243 243 242 241 241 241 240 240 240 239 239 238 238 238 238 237 237 236 236 236 237 237 238 239 240 240 241 241 240 239 239 240 241 241 241 242 243 244 244 245 246 247 248 250 251 251 251 251 252 252
302 300 297 293 289 287 285 281 276 273 270 268 266 265 263 262 261 259 258 257 256 254 252 250 248 247 248 249 248 248 248 247 246 244 243 243 243 243 241 241 241 240 240 239 240 239 239 238 238 238 238 237 237 236 236 236 237 237 238 239 240 241 241 240 240 239 239 240 241 241 242 242 243 244 244 245 246 248 249 250 251 251 251 252 253
308 304 299 295 291 289 287 285 281 278 275 273 272 271 269 267 265 263 262 260 259 257 254 251 249 247 247 248 248 248 248 248 246 243 242 242 243 243 242 242 241 241 240 240 239 240 240 239 238 238 238 238 237 237 236 236 236 237 238 239 240 241 241 241 240 240 239 240 240 241 242 242 242 243 244 245 246 247 248 249 250 251 251 252 253
313 309 304 299 294 290 288 287 285 282 280 279 277 275 272 270 268 266 263 261 259 257 256 254 251 249 248 247 248 248 248 247 246 243 242 241 241 242 243 242 242 241 241 240 239 239 239 239 238 238 237 237 237 237 237 237 236 237 237 238 239 240 241 241 241 241 240 240 240 241 242 242 242 243 243 244 245 246 247 248 250 250 251 251 252
316 311 307 303 298 293 290 289 287 286 284 281 278 275 272 270 268 266 263 260 258 256 254 254 252 251 249 247 248 248 248 247 246 244 242 241 240 241 242 242 242 241 240 240 240 239 239 239 239 238 238 238 237 237 237 237 237 237 237 238 239 240 241 241 241 241 241 241 241 241 241 242 243 243 243 244 245 246 247 248 249 250 250 251 252
316 312 308 305 301 296 292 289 287 284 281 278 276 273 271 269 268 267 264 262 259 256 254 253 252 251 250 248 247 247 248 247 246 245 243 242 240 240 241 242 242 242 240 240 240 240 240 239 239 239 239 239 239 238 238 238 238 239 239 239 239 240 241 241 242 242 242 242 241 241 241 242 243 244 244 245 246 246 247 248 248 249 250 251 252
317 313 310 306 302 298 293 289 286 283 280 278 276 275 273 272 271 270 269 266 263 261 258 255 254 253 251 248 246 246 247 247 247 246 245 243 242 241 241 242 243 243 242 241 241 240 240 240 240 239 239 239 239 239 239 239 239 239 239 239 239 239 240 241 241 242 242 242 242 242 241 242 243 244 245 246 247 247 248 249 249 250 251 251 252
317 314 310 307 303 300 297 293 290 287 285 283 281 280 278 276 275 273 272 270 268 265 263 260 257 255 253 250 247 246 246 247 247 248 247 246 245 244 243 243 243 244 244 243 242 241 240 240 240 240 240 239 239 240 240 240 240 240 239 239 239 239 239 240 241 241 242 242 242 242 242 243 243 244 245 246 247 248 249 249 250 250 251 251 252
318 315 312 308 305 303 301 298 295 293 290 287 284 282 279 277 275 274 272 271 269 268 267 265 262 259 256 253 249 247 246 246 247 247 248 248 247 247 246 246 246 245 245 244 244 243 242 241 241 242 242 241 240 240 240 241 241 241 240 240 240 239 239 239 240 240 241 241 241 242 242 243 243 244 245 245 246 247 248 249 250 250 251 251 252
321 320 317 314 311 308 305 302 299 296 292 288 284 280 278 275 274 272 271 270 269 268 267 266 264 261 258 256 253 251 249 247 247 246 247 247 248 248 248 248 247 248 247 246 246 245 245 244 243 243 243 243 243 242 242 242 241 241 241 241 241 240 239 239 239 239 240 240 240 240 240 240 241 241 243 244 245 246 247 249 249 250 251 251 252
327 327 325 322 319 316 313 309 305 300 295 290 286 281 277 274 272 271 270 270 269 269 268 267 266 265 263 261 258 256 254 252 249 247 246 246 247 247 248 248 249 249 249 249 248 247 246 246 245 245 244 244 244 244 244 243 242 242 242 241 240 240 240 240 240 240 240 240 239 239 239 239 240 240 241 242 244 245 246 248 249 250 250 251 251
334 334 331 329 327 324 320 316 311 305 299 294 290 286 282 277 274 272 271 270 270 270 270 270 269 268 267 265 263 261 259 257 254 251 249 247 246 245 246 247 247 248 248 248 248 248 247 247 246 246 246 246 245 244 244 244 244 244 243 241 240 240 241 241 241 241 240 241 241 240 240 240 240 240 241 241 242 243 244 245 246 247 248 249 249
340 340 337 335 332 329 325 320 315 310 305 299 296 292 288 283 278 274 272 271 271 271 271 272 272 271 270 268 265 263 261 260 258 255 253 251 249 248 247 246 246 246 247 248 248 248 248 247 247 247 248 248 247 245 244 244 244 244 243 242 242 243 243 243 243 242 242 241 241 241 241 241 241 241 241 240 240 241 242 243 244 245 246 247 247
345 343 341 339 336 333 330 326 322 318 313 307 302 296 291 286 282 277 275 274 273 274 274 273 272 271 269 267 265 263 261 260 259 258 257 255 254 252 250 248 246 245 245 246 247 248 248 248 248 247 247 248 248 247 246 244 244 244 244 244 245 245 245 245 244 243 242 241 241 241 241 241 241 241 242 242 242 242 242 243 244 245 246 247 248
347 344 342 341 340 339 336 334 330 325 319 312 306 300 295 291 288 285 283 280 278 276 275 273 272 270 268 267 265 263 261 259 258 258 257 256 255 254 253 251 249 248 247 246 245 245 246 246 246 246 245 246 246 246 246 245 244 244 245 245 245 245 245 244 244 243 243 242 242 242 242 242 242 242 243 244 244 245 245 246 246 247 248 249 250
349 346 345 346 346 345 342 340 337 332 327 320 313 308 304 300 298 295 291 287 284 281 278 275 274 272 271 270 267 265 263 261 259 257 256 255 255 254 253 252 250 250 249 248 247 246 245 244 243 243 243 244 244 245 244 244 243 243 244 246 246 245 245 245 244 244 244 244 244 244 244 244 243 243 244 245 246 247 247 248 248 249 250 250 251
353 351 350 350 350 349 347 344 341 338 335 330 324 319 315 311 306 301 296 291 286 282 278 275 273 271 269 268 266 264 262 260 258 256 255 254 254 254 253 252 250 249 249 248 248 248 247 245 244 242 242 242 242 243 243 243 242 242 243 244 245 245 246 247 247 247 247 246 245 244 245 245 245 245 245 246 246 247 247 248 248 248 249 249 250
357 354 353 352 351 350 349 347 344 341 338 335 331 327 323 317 311 305 298 291 285 279 276 272 269 267 264 262 260 259 258 256 254 253 252 251 251 252 252 252 251 250 249 249 249 248 248 246 245 244 242 240 240 239 240 241 241 241 242 242 243 244 244 245 246 246 246 245 245 245 245 246 246 245 245 246 246 245 245 246 246 246 247 248 249
358 356 355 355 355 354 352 351 350 348 345 342 340 337 333 327 321 315 308 301 293 288 283 277 273 269 265 262 260 257 255 254 253 252 250 248 246 246 247 249 250 250 250 249 249 249 248 247 245 244 242 240 239 237 236 237 237 238 239 240 241 242 242 242 242 242 242 243 243 244 244 244 243 242 241 241 241 241 242 242 244 245 246 247 248
0 359 359 0 1 359 357 356 356 356 354 350 347 344 339 334 330 325 319 312 304 298 292 286 281 275 269 265 261 258 257 256 255 253 250 247 243 241 241 242 243 245 246 246 247 247 247 247 247 246 245 243 242 239 237 236 235 234 234 235 236 238 239 239 240 240 240 240 239 238 238 239 239 238 238 239 239 241 242 243 244 245 246 246 247
3 2 2 3 3 2 1 1 1 360 358 355 352 350 345 340 336 331 327 322 317 311 308 303 296 289 281 274 268 264 261 259 258 258 254 250 245 240 237 236 237 238 239 240 241 241 242 243 245 246 246 246 245 244 242 239 236 234 232 231 230 231 232 234 235 237 238 238 237 236 236 236 237 237 238 240 242 243 244 245 245 245 246 247 247
6 4 4 4 4 3 4 4 3 2 1 359 357 356 352 349 345 341 337 334 329 324 322 319 312 306 300 294 286 280 274 270 268 266 263 260 253 246 240 234 231 231 232 233 233 233 234 235 237 239 240 242 243 243 242 241 239 237 234 231 229 229 228 229 230 232 234 235 236 236 235 236 236 238 239 241 243 245 245 245 245 245 246 246 246
8 7 7 7 6 6 6 6 5 3 2 360 358 355 353 351 349 347 345 341 335 332 330 328 326 323 320 317 311 304 298 291 285 278 273 268 262 256 249 240 233 230 228 229 230 230 230 230 230 231 232 234 235 236 237 238 238 237 236 234 232 231 230 229 229 229 230 231 232 233 234 234 235 237 238 240 242 243 243 244 244 244 245 245 246
9 9 10 10 8 7 7 7 6 4 2 0 359 356 354 353 353 353 353 349 344 341 338 338 339 339 338 335 329 320 312 304 297 289 282 274 267 261 255 247 239 232 228 228 229 230 230 230 230 230 230 230 231 233 234 235 235 235 234 234 233 232 231 231 230 230 229 229 229 229 230 231 231 233 234 236 238 239 240 241 242 243 244 244 245
9 9 10 10 9 8 8 8 8 6 4 3 2 1 0 1 1 1 359 357 356 354 352 350 350 349 348 344 338 330 323 314 305 296 288 281 274 267 259 251 243 235 229 225 224 225 227 228 229 230 230 231 231 232 233 235 235 235 235 234 233 232 231 230 230 230 229 229 229 229 229 229 230 231 232 234 235 237 238 240 242 243 245 246 248
9 10 11 10 9 9 10 11 11 9 8 8 7 7 7 8 8 6 4 3 3 3 3 1 357 354 352 348 343 339 331 322 314 305 297 289 280 273 265 255 247 238 231 226 222 221 223 225 227 229 230 231 232 233 234 235 235 236 236 236 235 234 233 232 231 231 230 230 230 230 231 231 232 233 235 237 238 240 242 243 245 247 248 250 250
9 10 10 9 8 8 9 11 12 12 12 12 12 11 11 12 13 13 12 10 7 6 5 4 1 359 355 350 345 341 337 331 323 313 303 295 285 276 266 256 248 240 232 226 222 220 220 221 222 225 227 228 230 231 232 233 234 234 234 234 235 235 235 234 234 234 233 234 234 234 235 236 237 238 239 241 242 244 245 246 247 248 249 250 251
9 9 9 9 8 7 9 11 13 13 13 14 14 14 14 15 16 17 18 17 14 10 7 5 5 2 358 352 346 341 337 335 330 320 307 295 284 273 265 256 248 240 233 227 222 220 220 220 220 221 222 223 224 225 226 227 228 228 229 230 230 231 231 232 232 233 233 233 234 234 236 237 238 239 240 242 243 244 245 247 248 249 250 251 253
9 10 10 10 8 8 9 12 13 14 13 14 15 16 17 18 18 19 20 21 21 19 15 12 12 9 5 1 357 354 350 346 339 328 314 292 269 255 247 243 240 235 229 224 220 218 218 219 220 221 221 222 223 223 224 224 225 225 226 227 227 229 230 231 232 232 233 234 234 235 236 238 240 241 243 244 245 247 248 249 250 251 251 252 253
10 11 12 12 11 10 11 12 14 15 15 15 16 17 19 20 20 20 21 22 24 24 22 20 19 18 15 12 9 10 12 13 8 359 345 323 292 264 244 234 229 227 225 222 219 217 216 216 217 218 220 221 222 223 224 225 226 226 226 227 227 229 230 231 233 234 235 236 238 238 239 240 242 243 244 245 246 247 247 248 248 249 249 250 250
10 11 13 13 13 12 12 13 14 15 15 15 16 18 20 22 22 22 23 23 25 27 26 23 22 23 23 23 20 20 24 31 35 37 36 31 4 286 247 227 220 218 217 217 218 216 216 215 216 216 217 218 219 221 222 223 225 225 226 226 227 227 228 229 230 231 232 233 234 235 236 237 238 239 240 241 242 243 244 245 245 246 247 247 248
10 11 13 14 14 13 12 12 13 13 13 14 15 18 20 22 23 23 23 24 27 29 29 26 24 22 23 25 27 28 30 34 36 37 42 61 91 136 162 171 177 183 187 193 200 204 206 207 209 210 211 213 214 216 217 218 220 221 222 223 224 225 226 227 228 229 230 231 231 232 233 234 235 237 238 239 240 242 243 244 245 246 247 248 249
9 10 11 12 12 12 11 11 10 10 11 12 14 16 18 19 21 22 22 24 29 32 32 30 27 25 25 26 28 30 33 35 35 30 21 15 35 165 170 170 172 174 176 181 189 195 199 201 203 204 206 208 209 211 212 213 215 217 218 220 222 223 224 226 227 228 230 232 233 235 237 238 239 240 242 243 244 245 247 248 249 250 251 252 253
8 9 10 10 10 10 9 9 8 8 8 9 11 13 14 15 18 20 20 21 26 31 33 33 30 27 27 28 28 30 30 31 32 30 24 18 13 12 23 110 158 176 182 190 196 200 205 207 208 210 211 212 213 214 215 216 218 219 221 224 226 227 229 230 232 234 235 237 239 241 243 244 245 247 248 249 251 252 253 254 254 255 256 256 257
5 7 8 8 9 8 7 7 6 5 6 7 7 9 10 11 14 16 18 18 21 25 29 31 30 26 26 27 28 29 29 27 27 26 24 22 21 20 19 21 19 13 354 255 228 224 222 221 223 223 224 225 225 227 227 228 230 231 233 235 237 239 240 242 243 245 246 247 248 249 250 251 252 253 255 255 256 257 258 258 259 259 260 260 261
4 5 5 6 6 6 6 5 3 3 3 4 3 4 5 7 9 12 14 16 17 19 23 26 26 24 22 21 22 24 25 24 22 21 19 18 18 17 16 13 7 359 348 331 308 285 263 255 248 245 244 243 242 242 241 241 241 242 243 244 245 246 248 249 250 251 252 252 253 254 254 255 256 257 257 258 259 260 261 262 263 263 264 264 265
3 2 2 3 3 4 4 3 2 360 360 0 0 1 1 3 4 6 8 11 13 14 18 22 23 22 18 17 17 17 17 16 16 13 11 9 7 4 3 356 341 322 301 282 267 257 250 245 243 241 239 240 240 240 241 241 242 243 245 247 248 249 250 251 251 253 254 255 256 257 259 260 261 262 263 264 265 266 267 268 269 269 270 270 270
1 0 360 360 360 0 1 1 360 357 356 356 357 358 359 359 360 1 3 7 9 10 13 17 20 19 16 14 14 12 10 9 8 5 2 359 355 350 344 332 316 299 282 267 258 251 247 245 243 244 244 246 248 251 253 254 256 256 256 257 258 259 259 261 262 264 265 267 268 269 270 271 271 272 272 273 273 274 274 274 274 274 274 274 274
0 359 358 357 357 357 357 357 356 354 352 351 352 354 356 356 356 356 359 3 5 5 7 12 15 15 13 12 12 11 10 8 5 1 358 355 352 349 344 337 328 320 310 301 293 287 283 280 277 275 275 274 275 276 275 276 276 276 276 277 278 279 280 280 281 281 281 281 280 280 279 279 278 278 278 277 277 277 277 277 276 276 275 275 275
0 359 357 355 353 353 353 351 351 350 349 347 347 349 351 353 352 352 355 360 1 1 2 6 10 11 10 9 9 9 8 6 4 1 359 357 355 353 350 345 341 337 333 328 323 317 312 307 304 300 297 296 294 294 294 294 294 294 294 293 293 292 291 290 288 287 286 284 283 283 282 281 281 281 280 280 279 279 278 278 278 278 278 278 278
359 358 356 354 351 349 348 347 345 345 345 344 343 344 346 348 348 348 350 354 357 357 358 1 4 6 6 5 6 6 5 4 2 1 360 359 357 355 353 351 349 346 343 339 334 328 323 319 315 312 309 308 305 303 301 299 297 295 294 292 292 291 290 289 288 287 286 285 285 285 285 285 285 284 284 284 283 283 283 283 282 282 282 281 281
358 357 356 353 350 347 345 343 341 340 340 340 339 339 340 341 342 343 345 348 351 352 352 355 359 1 1 1 1 1 0 360 359 358 358 357 356 356 355 354 352 350 347 344 339 335 330 326 321 316 311 308 304 301 299 297 295 295 294 294 293 292 292 291 290 290 289 290 290 290 290 290 289 289 289 288 288 287 287 286 286 285 285 284 284